Погода в Саган-Нуре

Россия / Республика Бурятия     51°20′48″N   108°26′04″E
темп.,
°C
ветер,
м/с
пор.,
м/с
влажн.,
%
обл.,
%
осадки,
мм/ч
давл.,
гПа
погр.,
м
18 апреля, вс
вс1823:00+5всв22445 0.0 100210
02:00+4зсз41249100 0.0 1005396
05:00+1сз71383100 0.0 1010805
08:00−1сз7107188 0.1 1017828
11:00+2сз693981 0.0 10181607
14:00+4сз79241 0.0 10181908
17:00+3ссз56195 0.0 10181693
20:00−2ссв36315 0.0 1021115
19 апреля, пн
пн1923:00−5всв223966 0.0 102337
02:00−5в223898 0.0 102221
05:00−6всв22422 0.0 102211
08:00−1вюв12285 0.0 1020262
11:00+6юз242393 0.0 10161078
14:00+12юз46225 0.0 10101633
17:00+13юз59230 0.0 10072414
20:00+7ююв22385 0.0 100712
20 апреля, вт
вт2023:00+5юв2245100 0.0 100714
02:00+4вюв2250100 0.0 100512
05:00+3ююв1153100 0.0 100510
08:00+7ссз23415 0.0 1005372
11:00+10сз33346 0.0 1005900
14:00+14з45290 0.0 10031312
17:00+12ссз543162 0.0 1003937
20:00+3с3855100 0.0 1008323
21 апреля, ср
ср2123:00+2ссз1262100 0.0 1010111
02:000с246199 0.1 1010316
05:00−3ссз22735 0.0 101339
08:00−1с356291 0.0 1013607
11:00+2с445299 0.0 1013995
14:00+3с5549100 0.0 10141186
17:00+1ссз5657100 0.0 10171192
20:00−2с3771100 0.1 1021721
22 апреля, чт
чт2223:00−3с395090 0.0 1023623
02:00−4ссз25555 0.0 1025171
05:00−7св11707 0.0 102710
08:00−2ссв2444100 0.0 1027489
11:00+1всв3428100 0.3 1026906
14:00+6всв3430100 0.4 10231494
17:00+5всв5542100 0.3 10231016
20:00+3св3848100 0.3 1024334